Location: downtown San Diego
(32.7310°N, 117.1990°W)
Time: 21:43:59
(UTC-07:00)

Cosmos 1238 Rocket - Pass Details

Date: 19 May 2017
Orbit: 375 x 1047 km, 82.9° (Epoch: 21 October)

Event Time Altitude Azimuth Distance (km) Brightness Sun altitude
Exits shadow 21:41:34 39° 140° (SE) 1,493 4.4 -21.4°
Maximum altitude 21:43:40 53° 90° (E) 1,259 4.3 -21.7°
Drops below altitude 10° 21:50:12 10° 17° (NNE) 2,871 6.8 -22.7°
Sets 21:52:51 0° 12° (NNE) 3,809 7.5 -23.1°
